Regional Weather Roundup
Issued by NWS

Home | Current Version | Previous Version | Text Only | Print | Product List | Glossary Off
Versions: 1 2 3 4 5 6 7 8 9 10 11 12 13 14 15 16 17 18 19 20 21 22 23 24 25 26 27 28 29 30 31 32 33 34 35 36 37 38 39 40 41 42 43 44 45 46 47 48 49 50

338
ASUS45 KCYS 230810
RWRWY

WYOMING REGIONAL WEATHER ROUNDUP
NATIONAL WEATHER SERVICE CHEYENNE WY
200 AM MDT TUE MAY 23 2017

NOTE:  "FAIR" INDICATES FEW OR NO CLOUDS BELOW 12,000 FEET
WITH NO SIGNIFICANT WEATHER AND/OR OBSTRUCTIONS TO VISIBILITY.

WYZ001-230900-
YELLOWSTONE NATIONAL PARK

CITY           SKY/WX    TMP DP  RH WIND       PRES   REMARKS
LK YELLOWSTONE   N/A     28  27  96 CALM      30.37S
W YELLOWSTONE  NOT AVBL

$$
WYZ002>013-054>058-071-098>099-230900-
NORTHERN WYOMING

CITY           SKY/WX    TMP DP  RH WIND       PRES   REMARKS
JACKSON        FAIR      37  34  87 NE7       30.32S WCI  32
CODY           FAIR      44  37  76 S8        30.27S
GREYBULL       NOT AVBL
WORLAND        FAIR      42  39  89 S9        30.23F
SHERIDAN       FAIR      40  35  83 CALM      30.23S
BUFFALO        FAIR      43  35  73 W6        30.25S
GILLETTE       CLOUDY    44  41  89 W9        30.20F
HULETT         CLOUDY    39  36  87 S3        30.20S
NEWCASTLE      FAIR      34  34 100 CALM      30.19F

$$
WYZ014>020-022>026-101>103-230900-
CENTRAL WYOMING

CITY           SKY/WX    TMP DP  RH WIND       PRES   REMARKS
BIG PINEY      FAIR      36  33  89 S7        30.35R WCI  30
PINEDALE       FAIR      32  32 100 E3        30.36R
DUBOIS         FAIR      32  28  86 NW3       30.34S
LANDER         FAIR      42  33  70 CALM      30.28F
RIVERTON       FAIR      41  35  79 W13       30.28F
CASPER         FAIR      39  36  89 SW8       30.25F WCI  33
DOUGLAS        CLOUDY    41  38  89 NW7       30.24F

$$
WYZ021-027>030-104>119-230900-
SOUTHERN WYOMING

CITY           SKY/WX    TMP DP  RH WIND       PRES   REMARKS
EVANSTON       CLOUDY    44  36  73 E8        30.33R
KEMMERER         N/A     41  32  70 CALM      30.36F
ROCK SPRINGS   FAIR      41  33  73 CALM      30.34F
DIXON            N/A     32  31  94 W3        30.37S
RAWLINS        NOT AVBL
LARAMIE        FAIR      32  29  88 NW10      30.28S WCI  24
CHEYENNE       MOCLDY    37  33  85 NW10      30.24F WCI  30
TORRINGTON     FAIR      41  38  89 NW9       30.19S
PINE BLUFFS    FAIR      37  36  93 W9        30.22  WCI  31

$$




USA.gov is the U.S. government's official web portal to all federal, state and local government web resources and services.